Olney-Noble, IL

12:20 PM CST on November 21, 2017 (GMT -0600)
Olney-Noble

Weather History for KOLY - April, 2013

Change the Weather History Date:

Sunday, April 21, 2013

  Actual Average (KEVV) Record (KEVV)
Temperature  
Mean Temperature 48 °F -  
Max Temperature 62 °F 67 °F 87 °F (1987)
Min Temperature 35 °F 48 °F 31 °F (1904)
Degree Days  
Heating Degree Days 16    
Moisture  
Dew Point 34 °F    
Average Humidity 54    
Maximum Humidity 81    
Minimum Humidity 34    
Precipitation  
Precipitation 0.00 in - - ()
Sea Level Pressure  
Sea Level Pressure 30.37 in    
Wind  
Wind Speed 7 mph (East)    
Max Wind Speed 13 mph    
Max Gust Speed 18 mph    
Visibility 10 miles    
Events      
Averages and records for this station are not official NWS values.
T = Trace of Precipitation, MM = Missing Value Source: NWS Daily Summary

Daily Weather History Graph

Daily Weather History Graph

Search for Another Location

Airport or City:

Trip Planner

Search our weather history database for the weather conditions in past years. The results will help you decide how hot, cold, wet, or windy it might be!

Date:

Astronomy

Apr. 21, 2013 Rise Set
Actual Time 6:07 AM CDT 7:35 PM CDT
Civil Twilight 5:39 AM CDT 8:03 PM CDT
Nautical Twilight 5:06 AM CDT 8:37 PM CDT
Astronomical Twilight 4:31 AM CDT 9:12 PM CDT
Moon 3:23 PM CDT 3:26 AM CDT
Length of Visible Light 14h 23m
Length of Day
13h 27m
Waxing Gibbous, 80% of the Moon is Illuminated
Apr 21
Waxing Gibbous
Apr 25
Full
May 2
Last Quarter
May 9
New
May 17
First Quarter

Hourly Weather History & Observations

Time (CDT) Temp. Windchill Dew Point Humidity Pressure Visibility Wind Dir Wind Speed Gust Speed Precip Events Conditions
12:15 AM 39.2 °F 35.9 °F 33.8 °F 81% 30.38 in 10.0 mi ENE 4.6 mph - N/A   Clear
12:35 AM 39.2 °F 35.0 °F 33.8 °F 81% 30.38 in 10.0 mi ENE 5.8 mph - N/A   Clear
12:55 AM 39.2 °F 34.2 °F 32.0 °F 75% 30.39 in 10.0 mi ENE 6.9 mph - N/A   Clear
1:15 AM 39.2 °F 34.2 °F 32.0 °F 75% 30.38 in 10.0 mi ENE 6.9 mph - N/A   Clear
1:35 AM 41.0 °F 34.7 °F 30.2 °F 65% 30.37 in 10.0 mi NE 10.4 mph - N/A   Clear
4:15 AM 37.4 °F 32.8 °F 30.2 °F 75% 30.40 in 10.0 mi East 5.8 mph - N/A   Clear
4:35 AM 37.4 °F 32.8 °F 30.2 °F 75% 30.41 in 10.0 mi East 5.8 mph - N/A   Clear
4:55 AM 37.4 °F 32.1 °F 30.2 °F 75% 30.41 in 10.0 mi East 6.9 mph - N/A   Clear
5:15 AM 37.4 °F 32.8 °F 30.2 °F 75% 30.42 in 10.0 mi East 5.8 mph - N/A   Clear
5:35 AM 35.6 °F 30.7 °F 30.2 °F 81% 30.42 in 10.0 mi East 5.8 mph - N/A   Clear
5:55 AM 35.6 °F 30.7 °F 30.2 °F 81% 30.43 in 10.0 mi East 5.8 mph - N/A   Clear
6:15 AM 35.6 °F 29.2 °F 30.2 °F 81% 30.44 in 10.0 mi East 8.1 mph - N/A   Clear
6:35 AM 37.4 °F 32.1 °F 30.2 °F 75% 30.45 in 10.0 mi East 6.9 mph - N/A   Clear
6:55 AM 39.2 °F 34.2 °F 30.2 °F 70% 30.45 in 10.0 mi ENE 6.9 mph - N/A   Clear
7:15 AM 41.0 °F 36.4 °F 30.2 °F 65% 30.46 in 10.0 mi East 6.9 mph - N/A   Clear
7:35 AM 42.8 °F 37.5 °F 30.2 °F 61% 30.46 in 10.0 mi East 9.2 mph - N/A   Clear
7:55 AM 42.8 °F 36.6 °F 30.2 °F 61% 30.46 in 10.0 mi East 11.5 mph - N/A   Clear
8:15 AM 44.6 °F 39.7 °F 30.2 °F 57% 30.46 in 10.0 mi East 9.2 mph 18.4 mph N/A   Clear
8:35 AM 44.6 °F 38.4 °F 30.2 °F 57% 30.46 in 10.0 mi ESE 12.7 mph - N/A   Clear
8:55 AM 48.2 °F - 32.0 °F 54% 30.46 in 10.0 mi East 11.5 mph 16.1 mph N/A   Clear
9:15 AM 48.2 °F - 32.0 °F 54% 30.45 in 10.0 mi ESE 11.5 mph - N/A   Clear
9:35 AM 50.0 °F - 32.0 °F 50% 30.45 in 10.0 mi ESE 10.4 mph 16.1 mph N/A   Clear
9:55 AM 50.0 °F - 33.8 °F 54% 30.45 in 10.0 mi East 12.7 mph - N/A   Clear
10:15 AM 51.8 °F - 33.8 °F 50% 30.45 in 10.0 mi ESE 10.4 mph 16.1 mph N/A   Clear
10:35 AM 53.6 °F - 35.6 °F 51% 30.45 in 10.0 mi ESE 11.5 mph 17.3 mph N/A   Clear
10:55 AM 53.6 °F - 33.8 °F 47% 30.45 in 10.0 mi ESE 9.2 mph - N/A   Clear
11:15 AM 55.4 °F - 35.6 °F 47% 30.44 in 10.0 mi SE 9.2 mph - N/A   Clear
11:35 AM 55.4 °F - 35.6 °F 47% 30.43 in 10.0 mi SE 8.1 mph - N/A   Clear
11:55 AM 57.2 °F - 35.6 °F 44% 30.42 in 10.0 mi ESE 6.9 mph - N/A   Clear
12:15 PM 57.2 °F - 35.6 °F 44% 30.41 in 10.0 mi ENE 9.2 mph - N/A   Clear
12:35 PM 57.2 °F - 33.8 °F 41% 30.40 in 10.0 mi East 9.2 mph 16.1 mph N/A   Clear
12:55 PM 57.2 °F - 33.8 °F 41% 30.39 in 10.0 mi East 10.4 mph - N/A   Clear
1:15 PM 59.0 °F - 33.8 °F 39% 30.39 in 10.0 mi East 8.1 mph - N/A   Clear
1:35 PM 60.8 °F - 33.8 °F 36% 30.38 in 10.0 mi SE 9.2 mph - N/A   Clear
1:55 PM 60.8 °F - 35.6 °F 39% 30.37 in 10.0 mi SE 9.2 mph - N/A   Clear
2:15 PM 60.8 °F - 33.8 °F 36% 30.37 in 10.0 mi ESE 8.1 mph - N/A   Clear
2:35 PM 60.8 °F - 33.8 °F 36% 30.36 in 10.0 mi SSE 6.9 mph - N/A   Clear
2:55 PM 60.8 °F - 35.6 °F 39% 30.35 in 10.0 mi East 10.4 mph - N/A   Clear
3:15 PM 62.6 °F - 35.6 °F 37% 30.34 in 10.0 mi ESE 3.5 mph - N/A   Clear
3:35 PM 62.6 °F - 35.6 °F 37% 30.33 in 10.0 mi East 9.2 mph - N/A   Clear
3:55 PM 62.6 °F - 33.8 °F 34% 30.32 in 10.0 mi ESE 4.6 mph - N/A   Clear
4:15 PM 62.6 °F - 33.8 °F 34% 30.32 in 10.0 mi East 8.1 mph - N/A   Clear
4:35 PM 62.6 °F - 33.8 °F 34% 30.31 in 10.0 mi SE 5.8 mph - N/A   Clear
4:55 PM 60.8 °F - 33.8 °F 36% 30.31 in 10.0 mi East 4.6 mph - N/A   Clear
5:15 PM 60.8 °F - 33.8 °F 36% 30.31 in 10.0 mi ESE 3.5 mph - N/A   Clear
5:35 PM 60.8 °F - 33.8 °F 36% 30.30 in 10.0 mi East 9.2 mph - N/A   Clear
5:55 PM 60.8 °F - 35.6 °F 39% 30.30 in 10.0 mi ENE 9.2 mph - N/A   Clear
6:15 PM 60.8 °F - 33.8 °F 36% 30.30 in 10.0 mi ENE 9.2 mph - N/A   Clear
6:35 PM 57.2 °F - 35.6 °F 44% 30.30 in 10.0 mi East 6.9 mph - N/A   Clear
6:55 PM 55.4 °F - 35.6 °F 47% 30.30 in 10.0 mi East 4.6 mph - N/A   Clear
7:15 PM 55.4 °F - 35.6 °F 47% 30.30 in 10.0 mi ENE 4.6 mph - N/A   Clear
7:35 PM 53.6 °F - 35.6 °F 51% 30.31 in 10.0 mi East 4.6 mph - N/A   Clear
7:55 PM 53.6 °F - 35.6 °F 51% 30.31 in 10.0 mi East 3.5 mph - N/A   Clear
8:15 PM 53.6 °F - 35.6 °F 51% 30.31 in 10.0 mi ENE 3.5 mph - N/A   Clear
8:35 PM 51.8 °F - 39.2 °F 62% 30.32 in 10.0 mi East 3.5 mph - N/A   Clear
8:55 PM 51.8 °F - 35.6 °F 54% 30.32 in 10.0 mi Calm Calm - N/A   Clear
9:15 PM 50.0 °F - 37.4 °F 62% 30.32 in 10.0 mi ENE 3.5 mph - N/A   Clear
9:35 PM 50.0 °F - 37.4 °F 62% 30.32 in 10.0 mi ENE 3.5 mph - N/A   Clear
9:55 PM 48.2 °F - 37.4 °F 66% 30.31 in 10.0 mi East 6.9 mph - N/A   Clear
10:15 PM 48.2 °F - 35.6 °F 62% 30.31 in 10.0 mi East 6.9 mph - N/A   Clear
10:35 PM 48.2 °F - 35.6 °F 62% 30.31 in 10.0 mi East 5.8 mph - N/A   Clear
10:55 PM 48.2 °F - 33.8 °F 58% 30.31 in 10.0 mi East 4.6 mph - N/A   Clear
11:15 PM 48.2 °F - 33.8 °F 58% 30.31 in 10.0 mi East 5.8 mph - N/A   Clear
11:35 PM 48.2 °F - 33.8 °F 58% 30.31 in 10.0 mi East 5.8 mph - N/A   Clear
11:55 PM 48.2 °F - 33.8 °F 58% 30.30 in 10.0 mi East 6.9 mph - N/A   Clear